Location: Nürtingen
(48.6244°N, 9.3469°E)
Time: 01:45:07
(UTC+02:00)

Envisat - Visible Passes

Search period start: 23 October 2019 00:00
Search period end: 01 November 2019 23:00
Orbit: 764 x 766 km, 98.1° (Epoch: 22 October)

Date Brightness Start Highest point End Pass type
(mag) Time Alt. Az. Time Alt. Az. Time Alt. Az.
23 Oct 3.1 19:20:41 10° SSE 19:25:46 86° WSW 19:30:54 10° NNW visible
23 Oct 6.1 21:03:25 10° WSW 21:05:35 13° W 21:07:44 10° WNW visible
24 Oct 3.2 18:44:15 10° SE 18:49:06 48° ENE 18:53:59 10° N visible
24 Oct 5.2 20:24:09 10° SSW 20:28:21 26° W 20:32:35 10° NW visible
25 Oct 6.4 06:51:08 10° ENE 06:53:09 12° E 06:55:10 10° ESE visible
25 Oct 3.9 19:46:23 10° S 19:51:20 52° W 19:56:19 10° NNW visible
26 Oct 2.9 19:09:26 10° SSE 19:14:31 78° ENE 19:19:37 10° NNW visible
26 Oct 5.9 20:51:08 10° SW 20:54:09 16° W 20:57:12 10° NW visible
27 Oct 6.0 06:15:14 10° NE 06:19:00 21° E 06:22:45 10° SE visible
27 Oct 3.5 17:33:12 10° SE 17:37:53 39° ENE 17:42:36 10° N visible
27 Oct 4.8 19:12:29 10° SSW 19:16:59 32° W 19:21:31 10° NNW visible
28 Oct 3.5 18:35:00 10° S 18:40:02 65° WSW 18:45:06 10° NNW visible
29 Oct 3.0 17:58:15 10° SSE 18:03:16 64° ENE 18:08:19 10° N visible
29 Oct 5.6 19:39:07 10° SW 19:42:45 19° W 19:46:23 10° NW visible
30 Oct 6.1 06:04:22 10° NE 06:07:36 17° E 06:10:49 10° SE visible
30 Oct 4.4 19:00:55 10° SSW 19:05:38 39° W 19:10:25 10° NNW visible
31 Oct 3.1 18:23:40 10° S 18:28:45 80° WSW 18:33:52 10° NNW visible
31 Oct 6.2 20:06:58 10° WSW 20:08:36 11° W 20:10:16 10° WNW visible
01 Nov 5.5 06:29:04 10° NE 06:33:23 27° E 06:37:41 10° SSE visible
01 Nov 3.1 17:47:08 10° SE 17:52:02 52° ENE 17:56:58 10° N visible
01 Nov 5.3 19:27:17 10° SW 19:31:21 24° W 19:35:27 10° NW visible
